Japanese version Home page |
Updated on February 8, 2023 |
|
Orbital ElementsEpoch = 2017 July 26.0 TT T = 2017 July 23.63636 TT Peri. = 237.93077 e = 0.3042585 Node = 146.20988 2000.0 q = 2.1952030 AU Incl. = 14.13755 a = 3.1551991 AU n = 0.17585872 P = 5.60 years
|
Magnitudes Graphm1 = 16.5 + 5 log d + 10.0 log r
|
The orbital elements are printed on CBET 5200.
|